{"data":{"norad_id":44753,"intl_designator":"2019-074AS","name":"STARLINK-1048","alt_names":[],"object_type":"PAYLOAD","status":"ACTIVE","operator":null,"country":"US","launch_date":"2019-11-11","launch_site_code":"AFETR","launch_vehicle":null,"mission":null,"orbit_class":"UNKNOWN","rcs_meters":null,"size_class":null,"mass_kg":null,"dimensions":null,"purposes":["comms"],"wikipedia_slug":null,"has_3d_model":false,"image_url":null,"decayed_at":null,"tle_current":{"epoch":"2026-09-19T17:24:29.153952Z","epoch_age_seconds":81311,"freshness":"FRESH","line1":"1 44753U 19074AS  26262.72533743  .00072351  00000+0  38549-3 0  9995","line2":"2 44753  53.0408 292.8529 0007034  30.4066 329.7361 15.79765469379431","mean_motion":15.79765469,"eccentricity":0.0007034,"inclination_deg":53.0408,"raan_deg":292.8529,"arg_perigee_deg":30.4066,"mean_anomaly_deg":329.7361,"bstar":0.00038549,"rev_number":37943,"period_min":91.152770981349,"perigee_km":326.3853056718,"apogee_km":335.82386673527,"semimajor_km":6709.2415862035,"source":"CELESTRAK","updated_at":"2026-09-20T09:00:38.220135Z"}}}